Waarnemingen

Advertentie
Mijn weer
Nevers, Frankrijk (7260): temperatuur & dauwpunt: 12.10.2017 07:00:00 - 18.10.2017 07:00:00 (CEST)Nevers, Frankrijk (7260): temperatuur 5cm: 12.10.2017 07:00:00 - 18.10.2017 07:00:00 (CEST)Nevers, Frankrijk (7260): temperatuur -20cm & temperatuur -100cm: 12.10.2017 07:00:00 - 18.10.2017 07:00:00 (CEST)Nevers, Frankrijk (7260): windsnelheid & windstoten: 12.10.2017 07:00:00 - 18.10.2017 07:00:00 (CEST)Nevers, Frankrijk (7260): windrichting: 12.10.2017 07:00:00 - 18.10.2017 07:00:00 (CEST)Nevers, Frankrijk (7260): luchtdruk: 12.10.2017 07:00:00 - 18.10.2017 07:00:00 (CEST)Nevers, Frankrijk (7260): zicht: 12.10.2017 07:00:00 - 18.10.2017 07:00:00 (CEST)Nevers, Frankrijk (7260): Zonneschijnduur: 12.10.2017 07:00:00 - 18.10.2017 07:00:00 (CEST)Nevers, Frankrijk (7260): neerslag: 12.10.2017 07:00:00 - 18.10.2017 07:00:00 (CEST)
Datum & Tijd tt [°C] td [°C] tt 5cm [°C] tt -20cm [°C] tt -100cm [°C] ff [km/u] ff [kn] fx [km/u] fx [kn] dd ppp [hPa] vv [km] sd [min] rr [mm]
18.10.2017 07:00:00 10,3 6,3 6,2 14,6 15,6 9 5 14 8 OZO 1015,6 20 0 0,0
18.10.2017 06:00:00 10,3 6,3 6,2 14,7 15,6 6 3 14 8 OZO 1015,9 20 0 0,0
18.10.2017 05:00:00 11,2 6,3 6,5 14,7 15,6 8 5 14 8 OZO 1016,0 20 0 0,0
18.10.2017 04:00:00 11,0 6,1 6,2 14,8 15,6 7 4 11 6 OZO 1016,4 20 0 0,0
18.10.2017 03:00:00 11,5 6,4 4,8 14,8 15,6 8 4 11 6 O 1016,6 20 0 0,0
18.10.2017 02:00:00 11,2 6,3 4,8 14,9 15,6 3 2 9 5 OZO 1016,8 20 0 0,0
18.10.2017 01:00:00 8,1 7,0 5,4 14,9 15,6 6 3 7 4 O 1017,0 20 0 0,0
18.10.2017 00:00:00 8,9 7,5 6,1 14,9 15,7 3 2 6 4 O 1017,2 20 0 0,0
17.10.2017 23:00:00 9,8 6,9 6,2 14,9 15,7 0 0 10 5 N 1017,1 20 0 0,0
17.10.2017 22:00:00 9,1 5,8 6,4 14,9 15,6 0 0 5 3 N 1016,6 20 0 0,0
17.10.2017 21:00:00 10,8 7,3 7,3 14,9 15,7 0 0 4 2 N 1016,4 20 0 0,0
17.10.2017 20:00:00 12,3 8,0 9,2 14,8 15,7 0 0 3 2 N 1016,3 20 0 0,0
17.10.2017 19:00:00 17,2 8,6 12,6 14,8 15,7 2 1 10 5 NNW 1015,9 15 29 0,0
17.10.2017 18:00:00 23,6 9,2 21,0 14,7 15,7 8 4 23 12 ZO 1015,6 20 60 0,0
17.10.2017 17:00:00 24,8 8,7 24,0 14,7 15,7 14 8 23 13 ZO 1016,2 20 60 0,0
17.10.2017 16:00:00 25,1 8,1 25,4 14,6 15,7 14 8 25 14 ZO 1016,7 20 60 0,0
17.10.2017 15:00:00 24,1 9,7 24,5 14,6 15,7 16 9 32 17 OZO 1017,3 19 60 0,0
17.10.2017 14:00:00 23,2 10,3 22,9 14,6 15,7 18 10 26 14 OZO 1018,7 20 60 0,0
17.10.2017 13:00:00 21,8 12,6 22,4 14,6 15,7 17 9 26 14 ZO 1020,0 20 60 0,0
17.10.2017 12:00:00 20,0 11,2 19,0 14,6 15,7 10 5 17 9 OZO 1020,9 20 60 0,0
17.10.2017 11:00:00 16,8 11,3 14,6 14,7 15,6 11 6 17 9 OZO 1021,9 20 60 0,0
17.10.2017 10:00:00 14,3 11,1 - - - 9 5 18 10 OZO 1022,6 19 - 0,0
17.10.2017 09:00:00 11,0 10,4 6,8 14,8 15,7 3 2 11 6 ONO 1023,1 12 18 0,0
17.10.2017 08:00:00 10,0 9,4 6,8 14,8 15,7 0 0 11 6 N 1023,1 0,6 0 0,0
17.10.2017 07:00:00 8,8 8,3 7,0 14,9 15,7 5 3 11 6 OZO 1023,3 8 0 0,0
17.10.2017 06:00:00 9,7 9,2 7,0 14,9 15,7 0 0 17 9 N 1023,4 7 0 0,0
17.10.2017 05:00:00 9,3 8,8 7,0 15,0 15,7 0 0 5 3 N 1023,8 2,5 0 0,0
17.10.2017 04:00:00 9,7 9,2 6,9 15,0 15,7 0 0 5 3 N 1024,2 11 0 0,0
17.10.2017 03:00:00 9,0 8,4 7,1 15,0 15,7 0 0 3 1 N 1024,5 6 0 0,0
17.10.2017 02:00:00 10,0 9,4 7,8 15,1 15,7 0 0 3 2 N 1024,3 0,8 0 0,0
17.10.2017 01:00:00 10,1 9,3 7,9 15,0 15,7 0 0 2 1 N 1024,4 13 0 0,0
17.10.2017 00:00:00 10,5 9,4 8,4 15,1 15,7 0 0 3 1 N 1024,5 13 0 0,0
16.10.2017 23:00:00 11,5 10,2 9,1 15,0 15,7 0 0 2 1 N 1024,2 18 0 0,0
16.10.2017 22:00:00 12,5 10,7 9,9 15,0 15,7 0 0 4 2 N 1023,7 20 0 0,0
16.10.2017 21:00:00 13,3 10,5 10,7 14,9 15,7 0 0 4 2 N 1023,4 20 0 0,0
16.10.2017 20:00:00 15,4 11,6 12,2 14,8 15,7 0 0 4 2 N 1022,7 20 0 0,0
16.10.2017 19:00:00 19,5 13,0 16,4 14,7 15,7 0 0 12 7 N 1021,8 14 31 0,0
16.10.2017 18:00:00 25,0 13,9 22,6 14,7 15,7 5 3 16 8 ZO 1021,2 20 60 0,0
16.10.2017 17:00:00 26,1 13,2 26,1 14,6 15,7 6 3 14 7 ZZO 1021,4 20 60 0,0
16.10.2017 16:00:00 26,0 12,8 27,2 14,5 15,7 9 5 20 11 Z 1021,5 20 60 0,0
16.10.2017 15:00:00 26,0 12,8 27,3 14,5 15,7 10 5 21 12 ZZO 1021,9 20 60 0,0
16.10.2017 14:00:00 24,6 12,2 24,8 14,5 15,7 11 6 21 11 ZZO 1022,2 20 60 0,0
16.10.2017 13:00:00 23,3 12,6 23,8 14,5 15,7 14 8 21 12 ZO 1022,6 20 60 0,0
16.10.2017 12:00:00 20,8 12,2 19,9 14,5 15,7 13 7 26 14 ZO 1023,2 20 60 0,0
16.10.2017 11:00:00 17,8 11,8 16,3 14,5 15,7 16 9 24 13 ZO 1023,3 20 60 0,0
16.10.2017 10:00:00 15,8 11,2 10,9 14,5 15,7 9 5 16 9 OZO 1023,5 20 60 0,0
16.10.2017 09:00:00 12,4 10,6 8,2 14,6 15,7 5 3 9 5 ONO 1023,6 17 27 0,0
16.10.2017 08:00:00 11,1 9,7 7,3 14,6 15,7 4 2 13 7 ONO 1023,3 16 0 0,0
16.10.2017 07:00:00 12,2 9,9 9,2 14,6 15,7 4 2 18 10 OZO 1023,4 19 0 0,0
16.10.2017 06:00:00 13,8 11,7 9,2 14,7 15,7 8 4 16 9 OZO 1023,3 20 0 0,0
16.10.2017 05:00:00 13,0 11,4 10,5 14,7 15,7 8 4 14 8 O 1023,6 17 0 0,0
16.10.2017 04:00:00 12,7 11,4 10,4 14,7 15,7 7 4 21 11 O 1023,9 13 0 0,0
16.10.2017 03:00:00 13,6 12,3 8,5 14,7 15,7 10 6 16 9 OZO 1024,2 17 0 0,0
16.10.2017 02:00:00 12,2 11,9 7,8 14,7 15,7 6 3 12 6 OZO 1024,3 13 0 0,0
16.10.2017 01:00:00 11,6 10,8 7,8 14,7 15,7 3 2 6 3 ONO 1024,8 14 0 0,0
16.10.2017 00:00:00 10,8 10,2 8,5 14,7 15,8 0 0 5 3 N 1024,9 11 0 0,0
15.10.2017 23:00:00 11,1 10,3 8,5 14,7 15,8 0 0 3 2 N 1024,8 10 0 0,0
15.10.2017 22:00:00 11,3 9,9 9,1 14,7 15,8 0 0 4 2 N 1024,5 12 0 0,0
15.10.2017 21:00:00 13,5 11,4 9,9 14,6 15,7 0 0 6 3 N 1024,0 19 0 0,0
15.10.2017 20:00:00 16,6 12,3 11,9 14,5 15,8 0 0 12 6 N 1023,7 20 0 0,0
15.10.2017 19:00:00 19,6 13,3 16,2 14,5 15,8 7 4 14 8 OZO 1023,1 8 29 0,0
15.10.2017 18:00:00 23,3 14,0 21,8 14,4 15,8 9 5 16 9 OZO 1022,7 20 60 0,0
15.10.2017 17:00:00 24,7 13,6 24,1 14,3 15,8 10 5 19 10 ZO 1022,6 20 60 0,0
15.10.2017 16:00:00 24,5 13,4 24,9 14,3 15,8 11 6 21 11 ZO 1023,0 20 60 0,0
15.10.2017 15:00:00 23,3 13,5 24,8 14,2 15,8 12 6 18 10 OZO 1023,3 17 60 0,0
15.10.2017 14:00:00 22,7 13,5 22,6 14,2 15,7 9 5 18 10 ZO 1023,8 19 60 0,0
15.10.2017 13:00:00 20,7 12,9 21,4 14,3 15,8 9 5 16 9 OZO 1024,6 20 60 0,0
15.10.2017 12:00:00 18,2 12,0 18,2 14,3 15,8 8 5 17 9 OZO 1025,3 19 60 0,0
15.10.2017 11:00:00 16,1 11,0 14,6 14,3 15,8 9 5 16 9 OZO 1025,4 19 60 0,0
15.10.2017 10:00:00 13,9 11,1 10,9 14,4 15,8 7 4 14 8 OZO 1025,5 12 60 0,0
15.10.2017 09:00:00 11,6 10,8 5,9 14,5 15,8 5 3 11 6 OZO 1025,3 7 28 0,0
15.10.2017 08:00:00 10,4 9,9 4,6 14,5 15,8 4 2 12 7 OZO 1025,2 6 0 0,0
15.10.2017 07:00:00 8,2 7,9 4,7 14,5 15,8 5 3 9 5 O 1025,3 0,7 0 0,2
15.10.2017 06:00:00 10,0 9,2 5,7 14,6 15,8 3 1 10 5 OZO 1024,9 4,3 0 0,0
15.10.2017 05:00:00 10,0 8,8 7,0 14,6 15,8 5 3 13 7 O 1024,6 4,3 0 0,0
15.10.2017 04:00:00 11,4 10,8 6,1 14,6 15,8 7 4 12 6 OZO 1024,6 3,3 0 0,0
15.10.2017 03:00:00 11,3 10,0 6,2 14,7 15,8 5 3 13 7 ZO 1025,0 7 0 0,0
15.10.2017 02:00:00 11,0 10,2 5,9 14,7 15,8 5 3 7 4 O 1025,3 5 0 0,0
15.10.2017 01:00:00 11,4 10,5 7,4 14,7 15,8 0 0 13 7 N 1025,6 10 0 0,0
15.10.2017 00:00:00 13,8 12,7 6,6 14,7 15,8 10 5 15 8 OZO 1025,3 9 0 0,0
14.10.2017 23:00:00 10,0 9,5 6,4 14,7 15,8 0 0 0 0 N 1025,8 8 0 0,0
14.10.2017 22:00:00 10,3 9,2 7,6 14,7 15,8 0 0 3 1 N 1025,7 8 0 0,0
14.10.2017 21:00:00 11,3 9,7 8,8 14,6 15,8 0 0 3 1 N 1025,7 15 0 0,0
14.10.2017 20:00:00 13,6 11,1 10,4 14,5 15,8 0 0 3 2 N 1025,4 19 0 0,0
14.10.2017 19:00:00 18,0 13,1 14,7 14,5 15,8 2 1 7 4 ZZO 1024,8 18 35 0,0
14.10.2017 18:00:00 22,9 13,9 21,5 14,4 15,8 5 3 14 7 ZZO 1024,2 20 60 0,0
14.10.2017 17:00:00 23,9 13,4 23,6 14,3 15,8 7 4 15 8 OZO 1024,5 20 60 0,0
14.10.2017 16:00:00 23,3 12,3 24,6 14,3 15,8 8 5 16 9 O 1024,7 18 60 0,0
14.10.2017 15:00:00 22,7 12,9 23,4 14,3 15,8 8 5 17 9 OZO 1025,1 17 60 0,0
14.10.2017 14:00:00 21,2 13,9 21,6 14,3 15,8 10 5 19 10 OZO 1025,8 20 60 0,0
14.10.2017 13:00:00 19,9 12,2 21,2 14,3 15,8 13 7 23 12 OZO 1026,6 20 60 0,0
14.10.2017 12:00:00 18,4 12,8 18,1 14,4 15,8 14 7 27 15 OZO 1026,9 18 60 0,0
14.10.2017 11:00:00 15,8 12,5 14,8 14,4 15,9 12 6 26 14 OZO 1027,3 17 60 0,0
14.10.2017 10:00:00 12,5 12,2 7,8 14,5 15,9 8 4 12 7 OZO 1027,5 15 60 0,0
14.10.2017 09:00:00 8,1 8,0 3,6 14,6 15,9 0 0 4 2 N 1027,6 3,8 30 0,0
14.10.2017 08:00:00 5,3 5,0 3,9 14,7 15,9 2 1 5 3 O 1027,4 0,6 0 0,0
14.10.2017 07:00:00 6,0 5,7 3,9 14,7 15,9 5 3 7 4 ONO 1027,3 1,4 0 0,0
14.10.2017 06:00:00 6,5 6,2 4,0 14,8 15,9 0 0 4 2 N 1027,0 0,1 0 0,0
14.10.2017 05:00:00 7,3 7,2 4,6 14,8 15,8 2 1 5 3 O 1027,1 0,2 0 0,0
14.10.2017 04:00:00 6,3 6,0 4,7 14,8 15,9 2 1 4 2 O 1027,4 0,3 0 0,0
14.10.2017 03:00:00 6,5 6,1 5,2 14,9 15,9 3 2 4 2 OZO 1027,6 0,3 0 0,0
14.10.2017 02:00:00 7,6 7,2 5,3 14,9 15,9 0 0 0 0 N 1027,6 0,1 0 0,0
14.10.2017 01:00:00 8,4 8,0 6,4 15,0 15,9 0 0 3 2 N 1027,4 0,1 0 0,0
14.10.2017 00:00:00 8,8 8,2 7,3 15,0 15,9 0 0 4 2 N 1027,1 0,1 0 0,0
13.10.2017 23:00:00 9,8 9,2 7,8 15,0 15,9 4 2 5 3 O 1027,0 4,8 0 0,0
13.10.2017 22:00:00 10,7 9,9 7,9 14,9 15,9 0 0 2 1 N 1027,1 9 0 0,0
13.10.2017 21:00:00 11,6 10,3 8,7 14,9 15,9 0 0 3 1 N 1026,8 16 0 0,0
13.10.2017 20:00:00 13,8 11,7 10,8 14,8 15,9 0 0 3 2 N 1026,2 20 0 0,0
13.10.2017 19:00:00 17,6 12,7 14,9 14,7 15,8 2 1 11 6 ZO 1025,7 3,2 37 0,0
13.10.2017 18:00:00 21,6 13,5 20,4 14,7 15,9 4 2 10 6 ONO 1025,2 13 60 0,0
13.10.2017 17:00:00 22,5 12,4 22,9 14,6 15,9 3 2 12 6 O 1025,3 18 60 0,0
13.10.2017 16:00:00 22,4 13,2 24,3 14,6 15,9 6 3 17 9 ZZO 1025,5 8 60 0,0
13.10.2017 15:00:00 21,6 14,0 22,7 14,6 15,9 7 4 17 9 OZO 1025,8 3,2 60 0,0
13.10.2017 14:00:00 20,3 14,0 21,0 14,6 15,9 13 7 22 12 OZO 1026,4 20 60 0,0
13.10.2017 13:00:00 19,2 14,0 20,1 14,6 15,9 10 5 21 11 ZO 1027,0 20 60 0,0
13.10.2017 12:00:00 16,8 13,3 16,8 14,7 15,9 10 5 18 10 OZO 1027,5 20 60 0,0
13.10.2017 11:00:00 13,4 12,3 13,4 14,7 15,9 11 6 16 9 OZO 1027,7 19 27 0,0
13.10.2017 10:00:00 11,3 11,1 9,1 14,8 15,9 3 1 6 4 OZO 1027,7 18 51 0,0
13.10.2017 09:00:00 8,5 8,4 4,0 14,9 15,9 0 0 4 2 N 1027,7 7 32 0,0
13.10.2017 08:00:00 5,8 5,7 3,9 15,0 15,9 0 0 4 2 N 1027,7 0,3 0 0,0
13.10.2017 07:00:00 5,7 5,4 4,1 15,1 15,9 2 1 5 3 O 1027,7 1,7 0 0,0
13.10.2017 06:00:00 5,2 4,8 4,1 15,1 15,9 0 0 3 2 N 1027,8 0,4 0 0,0
13.10.2017 05:00:00 6,0 5,7 5,0 15,2 15,9 0 0 4 2 N 1027,7 0,2 0 0,0
13.10.2017 04:00:00 6,4 6,1 5,0 15,2 15,9 2 1 4 2 ZZO 1027,7 0,6 0 0,0
13.10.2017 03:00:00 6,8 6,4 5,5 15,3 15,9 2 1 4 2 ONO 1027,9 0,4 0 0,0
13.10.2017 02:00:00 7,4 7,1 6,1 15,3 15,9 0 0 5 3 N 1027,9 0,5 0 0,0
13.10.2017 01:00:00 7,8 7,5 6,5 15,3 15,9 0 0 3 1 N 1027,7 0,2 0 0,0
13.10.2017 00:00:00 8,4 8,0 7,0 15,3 15,9 0 0 2 1 N 1027,9 0,3 0 0,2
12.10.2017 23:00:00 8,6 8,0 7,0 15,3 15,9 0 0 3 1 N 1027,9 0,2 0 0,0
12.10.2017 22:00:00 9,9 9,3 7,6 15,3 15,9 0 0 3 1 N 1027,6 0,2 0 0,0
12.10.2017 21:00:00 11,6 11,0 8,3 15,3 15,9 0 0 3 2 N 1027,3 0,1 0 0,0
12.10.2017 20:00:00 12,5 11,2 10,6 15,3 15,9 2 1 3 2 ZO 1027,5 11 0 0,0
12.10.2017 19:00:00 16,2 13,7 14,6 15,2 15,9 3 1 6 3 ONO 1027,0 19 29 0,0
12.10.2017 18:00:00 17,2 14,7 17,5 15,2 15,9 0 0 8 4 N 1026,8 20 0 0,0
12.10.2017 17:00:00 16,8 14,8 17,0 15,1 15,9 0 0 5 3 N 1026,8 20 0 0,0
12.10.2017 16:00:00 16,4 14,9 17,1 15,1 15,9 4 2 13 7 NNO 1027,2 18 0 0,0
12.10.2017 15:00:00 17,8 13,9 18,4 15,1 15,9 5 3 19 10 ZZW 1027,1 20 3 0,0
12.10.2017 14:00:00 17,1 14,9 16,5 15,1 15,9 7 4 14 8 Z 1027,4 19 0 0,0
12.10.2017 13:00:00 16,6 13,3 17,9 15,1 15,9 8 4 16 8 Z 1027,6 20 0 0,0
12.10.2017 12:00:00 16,4 12,9 17,0 15,0 15,9 11 6 18 10 WZW 1027,4 20 3 0,0
12.10.2017 11:00:00 15,7 13,2 15,7 15,0 15,9 10 5 19 11 ZW 1027,2 20 8 0,0
12.10.2017 10:00:00 14,9 12,9 13,8 15,0 15,9 7 4 15 8 ZZW 1026,8 20 0 0,0
12.10.2017 09:00:00 14,0 12,7 13,2 15,0 15,9 4 2 10 5 Z 1026,1 20 0 0,0
12.10.2017 08:00:00 13,6 12,7 12,4 15,1 15,9 4 2 8 4 ZO 1025,4 16 0 0,0
12.10.2017 07:00:00 13,3 12,4 11,4 15,1 15,9 5 3 14 8 ZW 1024,5 20 0 0,0

tt = temperatuur
td = dauwpunt
tt 5cm = temperatuur 5cm
tt -20cm = temperatuur -20cm
tt -100cm = temperatuur -100cm
ff = windsnelheid
fx = windstoten
dd = windrichting
ppp = luchtdruk
vv = zicht
sd = Zonneschijnduur
rr = neerslag

Weerstations in de omgeving